Location: San Antonio
(29.4240°N, 98.4930°W)
Time: 04:50:34
(UTC-05:00)

Courier 1B - Pass Details

Date: 17 July 2024
Orbit: 962 x 1208 km, 28.3° (Epoch: 17 July)

Event Time Altitude Azimuth Distance (km) Brightness Sun altitude
Rises 15:42:16 0° 250° (WSW) 4,059 11.2 61.2°
Reaches altitude 10° 15:45:10 10° 248° (WSW) 3,072 10.7 60.6°
Maximum altitude 15:52:43 68° 167° (SSE) 1,201 9.0 59.0°
Drops below altitude 10° 15:59:48 10° 86° (E) 2,900 9.8 57.5°
Sets 16:02:28 0° 84° (E) 3,819 10.3 56.9°
